Other Surface Observations
Issued by NWS Charleston, SC

Home | Current Version | Previous Version | Text Only | Print | Product List | Glossary On
Versions: 1 2 3 4 5 6 7 8 9 10 11 12 13 14 15 16 17 18 19 20 21 22 23 24 25 26 27 28 29 30 31 32 33 34 35 36 37 38 39 40 41 42 43 44 45 46 47 48 49 50
000
SXUS52 KCHS 051926
OSOCHS

MARINE OBSERVATIONS
NATIONAL WEATHER SERVICE CHARLESTON SC
200 PM EST THU MAR 05 2015

...DOWNTOWN CHARLESTON AND HARBOR...

CITY           SKY/WX    TMP DP  RH WIND       PRES   REMARKS
WATERFRONT PRK   N/A     66 N/A N/A SW18G30     N/A
FORT JOHNSON   NOT AVBL

...LAKE MOULTRIE...

CITY           SKY/WX    TMP DP  RH WIND       PRES   REMARKS
PINOPOLIS      NOT AVBL

...LAKE AND SUPPLEMENTAL COASTAL OBSERVATIONS...

STATION/POSITION TIME  TEMP    WIND        PRES    WAVE   SWELL
                       AIR SEA DIR/SP/G            HT/PER HT/PER/DIR
                 (UTC) (F)     (DEG/KT/KT) (MB)    (FT/S) (FT/S/D)
FORT PULASKI     1900   71 53  200/ 11/ 17 1015.6F
SAPELO ISLAND    1800   75     230/ 17     1017.0S
UPR LAKE MARION  NOT AVBL
WINYAH BAY       1745   74     210/ 18     1014.0
LAKE MURRAY      1900   62     290/ 11/ 35 1013.2R
ACE BASIN NERRS  1745   70     170/  3     1016.0


...C-MAN AND BUOY OBSERVATIONS...

STATION/POSITION TIME  TEMP    WIND        PRES    WAVE   SWELL
                       AIR SEA DIR/SP/G            HT/PER HT/PER/DIR
                 (UTC) (F)     (DEG/KT/KT) (MB)    (FT/S) (FT/S/D)
BUOY 41004       1850   69 68  210/ 23/ 29 1014.3F   6/ 7   2/10
BUOY 41008       1850   61 56  190/ 14/ 16 1016.2F   3/10   2/120/10
FOLLY BEACH CMAN 1800   58     220/ 10/ 12 1016.6F
CAPERS NS BUOY   1800   56     240/  8/ 10   N/A
FRIPP NS BUOY    1800   57     210/ 17/ 21 1015.8F
5E ST. MARYS GA  1821      55                N/A     3/ 5   2/100/12


STATION/POSITION TIME  TEMP    WIND        PRES    WAVE   SWELL
                       AIR SEA DIR/SP/G            HT/PER HT/PER/DIR
                 (UTC) (F)     (DEG/KT/KT) (MB)    (FT/S) (FT/S/D)
FRYING PAN BUOY  1850   68 64  220/ 21/ 25 1014.6F   7/ 7   3/140/10
BUOY 41025       NOT AVBL
CAPE LOOKOUT NC  1800   59     230/ 13/ 18 1014.5F
BUOY 41002       1850   74 73  220/ 19/ 23 1019.1F   7/ 7   3/120/10
BUOY 41010       1820   74 75  180/ 14/ 16 1020.3F
ST AUGUSTINE FL  1800   79     220/ 12/ 15 1019.1S

$$



USA.gov is the U.S. government's official web portal to all federal, state and local government web resources and services.